Regional Weather Roundup
Issued by NWS

Home | Current Version | Previous Version | Graphics & Text | Print | Product List | Glossary On
Versions: 1 2 3 4 5 6 7 8 9 10 11 12 13 14 15 16 17 18 19 20 21 22 23 24 25 26 27 28 29 30 31 32 33 34 35 36 37 38 39 40 41 42 43 44 45 46 47 48 49 50
000
ASUS45 KBOU 280707
RWRCO

WEATHER ROUNDUP FOR COLORADO
NATIONAL WEATHER SERVICE DENVER/BOULDER CO
100 AM MDT SAT MAR 28 2015

NOTE: "FAIR" INDICATES FEW OR NO CLOUDS BELOW 12000 FEET WITH NO
SIGNIFICANT WEATHER AND/OR OBSTRUCTIONS TO VISIBILITY.

COZ001>005-013-030-031-280800-
...NORTHWEST COLORADO...

CITY           SKY/WX    TMP DP  RH WIND       PRES   REMARKS
CRAIG          CLEAR     39  31  72 CALM      30.23R
HAYDEN         CLEAR     45  27  49 SE6       30.23S
MEEKER         MOCLDY    42  28  57 SE9       30.25F
MOUNT WERNER   NOT AVBL
STEAMBOAT SPGS CLEAR     41  31  67 CALM      30.24F
WALDEN         PTCLDY    34  28  80 E6        30.27S WCI  29
$$

COZ006>008-011-280800-
...WEST CENTRAL VALLEYS...

CITY           SKY/WX    TMP DP  RH WIND       PRES   REMARKS
GRAND JUNCTION CLEAR     45  25  45 NE3       30.18S
MONTROSE       CLEAR     45  26  47 SE9       30.25F
EAGLE          CLEAR     37  27  65 E5        30.29S
RIFLE          PTCLDY    43  27  53 CALM      30.23R
DELTA          CLEAR     50  28  41 CALM      30.22F
NUCLA          CLEAR     45  23  42 E14       30.28F
$$

COZ017>023-064>068-280800-
...SOUTHWEST COLORADO...

CITY           SKY/WX    TMP DP  RH WIND       PRES   REMARKS
DURANGO        CLEAR     44  22  41 VRB3      30.26S
CORTEZ         CLEAR     36  22  56 E6        30.26S
PAGOSA SPRINGS CLEAR     37  22  54 CALM      30.31F
TELLURIDE      PTCLDY    38  23  53 SE5       30.41S
WOLF CREEK PAS CLEAR     32  14  47 NW5       30.52F WCI  27
$$

COZ009-010-012-014-032>034-037-058>063-280800-
...CENTRAL COLORADO...

CITY           SKY/WX    TMP DP  RH WIND       PRES   REMARKS
ASPEN          PTCLDY    35  24  64 SW8       30.31S WCI  29
BUENA VISTA    CLEAR     37  26  65 CALM      30.31S
COPPER MTN     CLEAR     34  19  55 W9G17     30.45F WCI  26
BERTHOUD PASS  FAIR      28  21  74 NW30      30.43F WCI  13
COTTONWOOD PAS CLEAR     43  18  36 NW9G20    30.37F
GUNNISON       CLEAR     32  21  64 CALM      30.36S
KREMMLING      PTCLDY    36  28  75 CALM      30.29S
LEADVILLE      CLEAR     30  18  60 NE6       30.37S WCI  24
SALIDA         CLEAR     42  23  47 W3        30.37S
SUNLIGHT       MOCLDY    37  23  56 CALM      30.46F
WILKERSON PASS CLEAR     34  18  51 W7        30.44F WCI  28
$$

COZ069>075-280800-
...SAN LUIS VALLEY/SANGRE DE CRISTO MOUNTAINS...

CITY           SKY/WX    TMP DP  RH WIND       PRES   REMARKS
ALAMOSA        PTCLDY    40  17  39 NE6       30.28F
LA VETA PASS   CLEAR     39  21  48 W8        30.38F
SAGUACHE       CLEAR     41  21  45 NW14      30.31S
$$

COZ035-036-038>040-280800-
...NORTHERN COLORADO FRONT RANGE...

CITY           SKY/WX    TMP DP  RH WIND       PRES   REMARKS
DENVER INTL AP PTCLDY    51  32  48 SW10      30.11F
DMNS CITY PARK   N/A     54  26  34 S6        30.12S
AURORA         PTCLDY    50  29  44 SW12      30.13F
FRONT RANGE AP PTCLDY    54  32  43 SW8       30.12F
ERIE MUNI ARPT PTCLDY    51  31  46 S5        30.10F
BOULDER MUN AP PTCLDY    55  28  35 SW8       30.10F
CENTENNIAL     PTCLDY    50  27  40 SW12      30.14F
BROOMFIELD     PTCLDY    55  28  35 W15       30.13F
FORT COLLINS   PTCLDY    54  28  37 W7        30.10F
LONGMONT       PTCLDY    52  31  43 W7        30.11F
$$

COZ041-046-047-076>085-087-088-280800-
...PIKES PEAK/PALMER DIVIDE AND SOUTHERN FOOTHILLS...

CITY           SKY/WX    TMP DP  RH WIND       PRES   REMARKS
COLO. SPRINGS  PTCLDY    51  23  33 N8        30.18F
A. F. ACADEMY  CLEAR     40  26  57 NE7       30.19F
ELLICOTT       CLEAR    N/A N/A N/A CALM      30.16F
FALCON         CLEAR     49  21  33 NW9       30.21F
FORT CARSON    NOT AVBL
LIMON          CLEAR     42  33  70 W7        30.11F
MONUMENT HILL  CLEAR     41  27  56 SW10      30.20F
TRINIDAD       CLEAR     47  31  53 W15       30.17S
$$

COZ042>045-048>051-090-091-280800-
...NORTHEAST COLORADO...

CITY           SKY/WX    TMP DP  RH WIND       PRES   REMARKS
GREELEY ARPT   PTCLDY    45  25  45 W7        30.06F
AKRON          CLEAR     47  31  53 W14       30.05F
BURLINGTON     CLEAR     44  34  67 W10       30.04F
WRAY           MOCLDY    42  33  71 SW6       30.02S
STERLING       CLEAR     39  32  75 CALM      30.03S
HOLYOKE        MOCLDY    43  32  65 W12       30.01S
FORT MORGAN    CLEAR    N/A N/A N/A NW13      30.06F
$$

COZ086-089-092>099-280800-
...SOUTHEAST COLORADO...

CITY           SKY/WX    TMP DP  RH WIND       PRES   REMARKS
PUEBLO         CLEAR     45  33  63 W8        30.12F
LA JUNTA       CLEAR     48  33  56 W13       30.08F
LAMAR          PTCLDY    45  34  65 W7        30.04F
SPRINGFIELD      N/A     42  32  67 W5        30.09F
$$


USA.gov is the U.S. government's official web portal to all federal, state and local government web resources and services.